Location: Berkeley
(37.8716°N, 122.2727°W)
Time: 02:30:38
(UTC-07:00)

Envisat - Pass Details

Date: 19 February 2019
Orbit: 764 x 766 km, 98.2° (Epoch: 21 March)

Event Time Altitude Azimuth Distance (km) Brightness Sun altitude
Rises 19:46:46 0° 197° (SSW) 3,218 6.4 -23.3°
Reaches altitude 10° 19:49:26 10° 210° (SSW) 2,296 5.8 -23.8°
Maximum altitude 19:53:34 25° 265° (W) 1,515 5.2 -24.6°
Drops below altitude 10° 19:57:42 10° 320° (NW) 2,309 6.0 -25.4°
Sets 20:00:25 0° 334° (NNW) 3,240 6.7 -25.9°
